Location: Trebic
(49.2170°N, 15.8830°E)
Time: 22:41:32
(UTC+02:00)

Transit 4A - Pass Details

Date: 27 August 2019
Orbit: 866 x 978 km, 66.8° (Epoch: 13 October)

Event Time Altitude Azimuth Distance (km) Brightness Sun altitude
Rises 01:56:30 0° 324° (NW) 3,649 11.5 -29.2°
Reaches altitude 10° 01:59:09 10° 328° (NNW) 2,685 10.8 -29.1°
Maximum altitude 02:05:19 59° 48° (NE) 1,071 8.3 -28.7°
Enters shadow 02:08:05 32° 114° (ESE) 1,528 8.9 -28.6°
Drops below altitude 10° 02:11:17 10° 128° (SE) 2,594 - -28.4°
Sets 02:13:48 0° 132° (SE) 3,516 - -28.3°
